| time (UTC) | temp F | wind direction | speed MPH | gust MPH | rain 1hr in | rain 24hr in | rain mn in | humidity % | barometer mb |
| 20260503054945 | 46 | 290 | 0.0 | 0.0 | 0.00 | 0.00 | 0.00 | 99 | 1014.3 |
| 20260503054441 | 46 | 292 | 0.0 | 0.0 | 0.00 | 0.00 | 0.00 | 99 | 1014.4 |
| 20260503053939 | 47 | 291 | 0.0 | 0.0 | 0.00 | 0.00 | 0.00 | 99 | 1014.5 |
| 20260503053437 | 47 | 293 | 0.0 | 0.0 | 0.00 | 0.00 | 0.00 | 99 | 1014.3 |
| 20260503052933 | 47 | 293 | 0.0 | 0.0 | 0.00 | 0.00 | 0.00 | 99 | 1014.3 |
| 20260503052431 | 47 | 293 | 0.0 | 0.0 | 0.00 | 0.00 | 0.00 | 99 | 1014.4 |
| 20260503051927 | 47 | 292 | 0.0 | 0.0 | 0.00 | 0.00 | 0.00 | 99 | 1014.5 |
| 20260503051423 | 48 | 291 | 0.0 | 1.0 | 0.00 | 0.00 | 0.00 | 99 | 1014.5 |
| 20260503050920 | 48 | 297 | 0.0 | 0.0 | 0.00 | 0.00 | 0.00 | 99 | 1014.2 |
| 20260503050416 | 49 | 303 | 0.0 | 0.0 | 0.00 | 0.00 | 0.00 | 99 | 1014.2 |
| 20260503045914 | 49 | 307 | 3.0 | 3.0 | 0.00 | 0.00 | 0.00 | 99 | 1014.1 |
| 20260503045411 | 49 | 311 | 2.0 | 2.0 | 0.00 | 0.00 | 0.00 | 99 | 1014.2 |
| 20260503044908 | 49 | 323 | 5.0 | 6.0 | 0.00 | 0.00 | 0.00 | 99 | 1014.3 |
| 20260503044405 | 49 | 295 | 3.0 | 3.0 | 0.00 | 0.00 | 0.00 | 99 | 1014.3 |
| 20260503043902 | 49 | 319 | 3.0 | 3.0 | 0.00 | 0.00 | 0.00 | 99 | 1014.0 |
| 20260503043358 | 49 | 308 | 2.0 | 3.0 | 0.00 | 0.00 | 0.00 | 99 | 1013.8 |
| 20260503042855 | 49 | 303 | 0.0 | 1.0 | 0.00 | 0.00 | 0.00 | 99 | 1014.0 |
| 20260503042352 | 49 | 305 | 2.0 | 2.0 | 0.00 | 0.00 | 0.00 | 99 | 1013.7 |
| 20260503041848 | 50 | 305 | 3.0 | 5.0 | 0.00 | 0.00 | 0.00 | 99 | 1013.7 |
| 20260503041345 | 50 | 304 | 3.0 | 3.0 | 0.00 | 0.00 | 0.00 | 99 | 1013.6 |
| 20260503040843 | 50 | 307 | 5.0 | 6.0 | 0.00 | 0.00 | 0.00 | 99 | 1013.4 |
| 20260503040340 | 50 | 305 | 2.0 | 2.0 | 0.00 | 0.00 | 0.00 | 99 | 1013.5 |
| 20260503035837 | 50 | 301 | 3.0 | 5.0 | 0.00 | 0.44 | 0.44 | 99 | 1013.5 |
| 20260503035334 | 50 | 305 | 2.0 | 2.0 | 0.00 | 0.44 | 0.44 | 99 | 1013.3 |
| 20260503034831 | 50 | 304 | 0.0 | 1.0 | 0.00 | 0.44 | 0.44 | 98 | 1013.4 |
| 20260503034329 | 50 | 305 | 2.0 | 2.0 | 0.00 | 0.44 | 0.44 | 98 | 1013.4 |
| 20260503033826 | 50 | 305 | 4.0 | 5.0 | 0.00 | 0.44 | 0.44 | 99 | 1013.6 |
| 20260503033323 | 50 | 305 | 3.0 | 3.0 | 0.00 | 0.44 | 0.44 | 99 | 1013.5 |
| 20260503032821 | 50 | 310 | 2.0 | 2.0 | 0.00 | 0.44 | 0.44 | 99 | 1013.7 |
| 20260503032320 | 50 | 313 | 4.0 | 5.0 | 0.00 | 0.44 | 0.44 | 99 | 1013.7 |
| 20260503031816 | 50 | 299 | 6.0 | 8.0 | 0.00 | 0.44 | 0.44 | 99 | 1013.8 |
| 20260503031315 | 50 | 319 | 4.0 | 7.0 | 0.00 | 0.44 | 0.44 | 99 | 1013.8 |
| 20260503030811 | 50 | 298 | 4.0 | 5.0 | 0.00 | 0.44 | 0.44 | 99 | 1013.6 |
| 20260503030307 | 50 | 300 | 3.0 | 5.0 | 0.00 | 0.44 | 0.44 | 99 | 1013.4 |
| 20260503025804 | 50 | 308 | 3.0 | 3.0 | 0.00 | 0.44 | 0.44 | 98 | 1013.4 |
| 20260503025304 | 50 | 303 | 3.0 | 3.0 | 0.00 | 0.44 | 0.44 | 98 | 1013.4 |
| 20260503024758 | 50 | 300 | 1.0 | 1.0 | 0.00 | 0.44 | 0.44 | 98 | 1013.4 |
| 20260503024255 | 50 | 301 | 1.0 | 2.0 | 0.00 | 0.44 | 0.44 | 98 | 1013.4 |
| 20260503023752 | 50 | 303 | 1.0 | 1.0 | 0.00 | 0.44 | 0.44 | 98 | 1013.4 |
| 20260503023249 | 50 | 306 | 1.0 | 1.0 | 0.00 | 0.44 | 0.44 | 98 | 1013.2 |
| 20260503022745 | 50 | 309 | 0.0 | 1.0 | 0.00 | 0.44 | 0.44 | 98 | 1013.0 |
| 20260503022240 | 50 | 306 | 1.0 | 2.0 | 0.00 | 0.44 | 0.44 | 98 | 1013.2 |
| 20260503021737 | 50 | 304 | 2.0 | 2.0 | 0.00 | 0.44 | 0.44 | 98 | 1013.6 |
| 20260503021232 | 50 | 309 | 2.0 | 3.0 | 0.00 | 0.44 | 0.44 | 99 | 1013.1 |
| 20260503020731 | 50 | 311 | 1.0 | 2.0 | 0.00 | 0.44 | 0.44 | 99 | 1013.3 |
| 20260503020228 | 50 | 306 | 0.0 | 1.0 | 0.00 | 0.44 | 0.44 | 99 | 1013.3 |
| 20260503015724 | 50 | 307 | 1.0 | 2.0 | 0.00 | 0.44 | 0.44 | 99 | 1012.8 |
| 20260503015221 | 50 | 312 | 0.0 | 1.0 | 0.00 | 0.44 | 0.44 | 99 | 1013.0 |
| 20260503014717 | 50 | 337 | 2.0 | 3.0 | 0.00 | 0.44 | 0.44 | 99 | 1012.7 |
| 20260503014216 | 50 | 323 | 1.0 | 2.0 | 0.00 | 0.44 | 0.44 | 99 | 1013.0 |
| 20260503013712 | 50 | 321 | 1.0 | 1.0 | 0.00 | 0.44 | 0.44 | 99 | 1013.0 |
| 20260503013210 | 50 | 321 | 1.0 | 1.0 | 0.00 | 0.44 | 0.44 | 99 | 1013.0 |
| 20260503012707 | 50 | 321 | 2.0 | 3.0 | 0.00 | 0.44 | 0.44 | 99 | 1013.1 |
| 20260503012204 | 50 | 320 | 2.0 | 2.0 | 0.00 | 0.44 | 0.44 | 99 | 1013.1 |
| 20260503011700 | 51 | 343 | 0.0 | 1.0 | 0.00 | 0.44 | 0.44 | 99 | 1012.6 |
| 20260503011157 | 51 | 323 | 1.0 | 2.0 | 0.00 | 0.44 | 0.44 | 99 | 1012.7 |
| 20260503010654 | 51 | 329 | 3.0 | 5.0 | 0.00 | 0.44 | 0.44 | 99 | 1012.6 |
| 20260503010151 | 51 | 330 | 1.0 | 1.0 | 0.00 | 0.44 | 0.44 | 99 | 1012.4 |
| 20260503005648 | 51 | 306 | 1.0 | 2.0 | 0.00 | 0.44 | 0.44 | 99 | 1012.4 |
| 20260503005145 | 51 | 330 | 3.0 | 5.0 | 0.00 | 0.44 | 0.44 | 99 | 1012.1 |
| 20260503004641 | 51 | 326 | 2.0 | 2.0 | 0.00 | 0.44 | 0.44 | 99 | 1012.1 |
| 20260503004140 | 51 | 328 | 4.0 | 6.0 | 0.00 | 0.44 | 0.44 | 99 | 1012.2 |
| 20260503003637 | 51 | 345 | 5.0 | 7.0 | 0.00 | 0.44 | 0.44 | 99 | 1012.0 |
| 20260503003134 | 51 | 342 | 2.0 | 3.0 | 0.00 | 0.44 | 0.44 | 99 | 1012.0 |
| 20260503002630 | 51 | 4 | 3.0 | 6.0 | 0.00 | 0.44 | 0.44 | 99 | 1012.1 |
| 20260503002127 | 51 | 331 | 7.0 | 10.0 | 0.00 | 0.44 | 0.44 | 99 | 1011.9 |
| 20260503001623 | 51 | 4 | 7.0 | 8.0 | 0.00 | 0.44 | 0.44 | 99 | 1012.0 |
| 20260503001120 | 51 | 356 | 3.0 | 3.0 | 0.00 | 0.44 | 0.44 | 99 | 1012.0 |
| 20260503000618 | 52 | 336 | 3.0 | 3.0 | 0.07 | 0.44 | 0.44 | 99 | 1011.7 |
| 20260503000115 | 52 | 311 | 2.0 | 3.0 | 0.07 | 0.44 | 0.44 | 99 | 1011.8 |
| 20260502235611 | 52 | 340 | 4.0 | 6.0 | 0.00 | 0.43 | 0.43 | 99 | 1011.9 |
| 20260502235110 | 51 | 4 | 6.0 | 8.0 | 0.00 | 0.43 | 0.43 | 99 | 1011.9 |
| 20260502234605 | 52 | 348 | 3.0 | 5.0 | 0.00 | 0.43 | 0.43 | 99 | 1011.9 |
| 20260502234103 | 52 | 1 | 6.0 | 10.0 | 0.00 | 0.43 | 0.43 | 99 | 1012.0 |
| 20260502233603 | 52 | 327 | 5.0 | 6.0 | 0.00 | 0.43 | 0.43 | 99 | 1011.9 |
| 20260502233101 | 52 | 354 | 4.0 | 6.0 | 0.00 | 0.43 | 0.43 | 99 | 1011.9 |
| 20260502232556 | 52 | 348 | 5.0 | 6.0 | 0.00 | 0.43 | 0.43 | 99 | 1011.9 |
| 20260502232054 | 52 | 10 | 10.0 | 13.0 | 0.00 | 0.43 | 0.43 | 99 | 1011.8 |
| 20260502231551 | 52 | 10 | 10.0 | 13.0 | 0.00 | 0.43 | 0.43 | 99 | 1011.8 |
| 20260502231049 | 52 | 331 | 5.0 | 6.0 | 0.00 | 0.43 | 0.43 | 99 | 1011.5 |
| 20260502230547 | 52 | 348 | 5.0 | 7.0 | 0.00 | 0.43 | 0.43 | 99 | 1011.3 |
| 20260502230045 | 52 | 336 | 4.0 | 5.0 | 0.00 | 0.43 | 0.43 | 99 | 1011.1 |
| 20260502225540 | 52 | 6 | 7.0 | 9.0 | 0.00 | 0.43 | 0.43 | 99 | 1011.2 |
| 20260502225038 | 52 | 342 | 7.0 | 8.0 | 0.00 | 0.43 | 0.43 | 99 | 1011.2 |
| 20260502224534 | 52 | 338 | 5.0 | 6.0 | 0.00 | 0.43 | 0.43 | 99 | 1011.3 |
| 20260502224031 | 53 | 17 | 10.0 | 11.0 | 0.00 | 0.43 | 0.43 | 99 | 1011.2 |
| 20260502223529 | 53 | 356 | 5.0 | 6.0 | 0.00 | 0.43 | 0.43 | 99 | 1011.0 |
| 20260502223027 | 53 | 356 | 5.0 | 6.0 | 0.00 | 0.43 | 0.43 | 99 | 1011.0 |
| 20260502222524 | 53 | 2 | 5.0 | 7.0 | 0.00 | 0.43 | 0.43 | 99 | 1011.0 |
| 20260502222020 | 53 | 320 | 3.0 | 5.0 | 0.00 | 0.43 | 0.43 | 99 | 1011.2 |
| 20260502221515 | 53 | 320 | 3.0 | 5.0 | 0.00 | 0.43 | 0.43 | 99 | 1011.2 |
| 20260502221013 | 53 | 351 | 5.0 | 7.0 | 0.00 | 0.43 | 0.43 | 99 | 1011.5 |
| 20260502220508 | 53 | 314 | 4.0 | 5.0 | 0.00 | 0.43 | 0.43 | 99 | 1010.9 |
| 20260502220006 | 53 | 314 | 4.0 | 5.0 | 0.00 | 0.43 | 0.43 | 99 | 1010.9 |
| 20260502215503 | 54 | 325 | 3.0 | 3.0 | 0.00 | 0.43 | 0.43 | 99 | 1010.9 |
| 20260502214959 | 53 | 8 | 7.0 | 8.0 | 0.00 | 0.43 | 0.43 | 99 | 1010.8 |
| 20260502214456 | 53 | 8 | 7.0 | 8.0 | 0.00 | 0.43 | 0.43 | 99 | 1010.8 |
| 20260502213954 | 54 | 343 | 6.0 | 7.0 | 0.00 | 0.43 | 0.43 | 99 | 1010.8 |
| 20260502213450 | 55 | 333 | 2.0 | 2.0 | 0.00 | 0.43 | 0.43 | 99 | 1010.9 |
| 20260502212949 | 55 | 333 | 2.0 | 2.0 | 0.00 | 0.43 | 0.43 | 99 | 1010.9 |
| 20260502212447 | 55 | 333 | 5.0 | 6.0 | 0.00 | 0.43 | 0.43 | 99 | 1010.6 |
| 20260502211944 | 55 | 317 | 2.0 | 3.0 | 0.00 | 0.43 | 0.43 | 99 | 1010.4 |
| 20260502211440 | 55 | 317 | 2.0 | 3.0 | 0.00 | 0.43 | 0.43 | 99 | 1010.4 |
| 20260502210938 | 55 | 305 | 6.0 | 7.0 | 0.00 | 0.43 | 0.43 | 99 | 1010.4 |
| 20260502210434 | 54 | 357 | 8.0 | 9.0 | 0.00 | 0.43 | 0.43 | 99 | 1010.1 |
| 20260502205931 | 54 | 357 | 8.0 | 9.0 | 0.00 | 0.43 | 0.43 | 99 | 1010.1 |
| 20260502205427 | 55 | 3 | 6.0 | 7.0 | 0.00 | 0.43 | 0.43 | 99 | 1009.9 |
| 20260502204925 | 55 | 310 | 1.0 | 1.0 | 0.00 | 0.43 | 0.43 | 99 | 1010.0 |
| 20260502204422 | 55 | 310 | 1.0 | 1.0 | 0.00 | 0.43 | 0.43 | 99 | 1010.0 |
| 20260502203920 | 55 | 358 | 3.0 | 5.0 | 0.07 | 0.43 | 0.43 | 99 | 1010.3 |
| 20260502203417 | 55 | 354 | 6.0 | 8.0 | 0.00 | 0.42 | 0.42 | 99 | 1010.5 |
| 20260502202912 | 55 | 354 | 6.0 | 8.0 | 0.00 | 0.42 | 0.42 | 99 | 1010.5 |
| 20260502202410 | 55 | 332 | 4.0 | 6.0 | 0.00 | 0.42 | 0.42 | 99 | 1010.1 |
| 20260502201908 | 55 | 358 | 5.0 | 6.0 | 0.00 | 0.42 | 0.42 | 99 | 1010.4 |
| 20260502201403 | 55 | 358 | 5.0 | 6.0 | 0.00 | 0.42 | 0.42 | 99 | 1010.4 |
| 20260502200900 | 55 | 347 | 2.0 | 2.0 | 0.00 | 0.42 | 0.42 | 99 | 1010.3 |
| 20260502200355 | 55 | 339 | 2.0 | 3.0 | 0.05 | 0.42 | 0.42 | 99 | 1010.5 |
| 20260502195854 | 55 | 352 | 4.0 | 5.0 | 0.05 | 0.42 | 0.42 | 99 | 1010.5 |
| 20260502195350 | 56 | 16 | 4.0 | 6.0 | 0.12 | 0.42 | 0.42 | 99 | 1010.3 |
| 20260502194847 | 55 | 0 | 3.0 | 3.0 | 0.12 | 0.41 | 0.41 | 99 | 1010.4 |
| 20260502194344 | 55 | 325 | 3.0 | 3.0 | 0.05 | 0.40 | 0.40 | 99 | 1010.5 |
| 20260502193840 | 55 | 351 | 3.0 | 3.0 | 0.12 | 0.40 | 0.40 | 99 | 1010.6 |
| 20260502193337 | 55 | 336 | 3.0 | 3.0 | 0.17 | 0.38 | 0.38 | 99 | 1011.0 |
| 20260502192833 | 55 | 331 | 3.0 | 3.0 | 0.17 | 0.38 | 0.38 | 99 | 1011.0 |
| 20260502192330 | 55 | 330 | 4.0 | 5.0 | 0.12 | 0.36 | 0.36 | 99 | 1010.7 |
| 20260502191827 | 55 | 6 | 3.0 | 3.0 | 0.00 | 0.34 | 0.34 | 99 | 1011.3 |
| 20260502191325 | 55 | 12 | 5.0 | 7.0 | 0.00 | 0.34 | 0.34 | 99 | 1011.1 |
| 20260502190822 | 55 | 333 | 2.0 | 2.0 | 0.00 | 0.34 | 0.34 | 99 | 1011.1 |
| 20260502190319 | 55 | 4 | 5.0 | 6.0 | 0.00 | 0.34 | 0.34 | 99 | 1011.0 |
| 20260502185815 | 55 | 1 | 3.0 | 5.0 | 0.05 | 0.34 | 0.34 | 99 | 1011.0 |
| 20260502185311 | 55 | 340 | 3.0 | 3.0 | 0.05 | 0.34 | 0.34 | 99 | 1010.8 |
| 20260502184808 | 55 | 323 | 5.0 | 7.0 | 0.00 | 0.33 | 0.33 | 99 | 1011.0 |
| 20260502184303 | 55 | 348 | 5.0 | 7.0 | 0.00 | 0.33 | 0.33 | 99 | 1011.0 |
| 20260502183800 | 55 | 348 | 3.0 | 3.0 | 0.07 | 0.33 | 0.33 | 99 | 1011.0 |
| 20260502183256 | 55 | 2 | 2.0 | 3.0 | 0.05 | 0.32 | 0.32 | 99 | 1011.0 |
| 20260502182752 | 55 | 20 | 3.0 | 5.0 | 0.05 | 0.32 | 0.32 | 99 | 1010.8 |
| 20260502182247 | 55 | 342 | 2.0 | 2.0 | 0.12 | 0.32 | 0.32 | 99 | 1011.1 |
| 20260502181744 | 55 | 354 | 6.0 | 7.0 | 0.00 | 0.30 | 0.30 | 99 | 1011.5 |
| 20260502181243 | 55 | 347 | 5.0 | 6.0 | 0.00 | 0.30 | 0.30 | 99 | 1011.8 |
| 20260502180740 | 55 | 0 | 3.0 | 3.0 | 0.07 | 0.30 | 0.30 | 99 | 1011.5 |
| 20260502180238 | 55 | 312 | 4.0 | 6.0 | 0.12 | 0.30 | 0.30 | 99 | 1011.7 |
| 20260502170202 | 56 | 325 | 3.0 | 3.0 | 0.05 | 0.27 | 0.27 | 99 | 1011.6 |
| 20260502164148 | 56 | 10 | 3.0 | 5.0 | 0.12 | 0.24 | 0.24 | 99 | 1012.3 |
| 20260502163644 | 56 | 342 | 3.0 | 3.0 | 0.12 | 0.22 | 0.22 | 99 | 1012.7 |
| 20260502163141 | 56 | 342 | 3.0 | 3.0 | 0.12 | 0.22 | 0.22 | 99 | 1012.7 |
| 20260502162638 | 56 | 339 | 6.0 | 8.0 | 0.12 | 0.21 | 0.21 | 99 | 1012.6 |
| 20260502162135 | 56 | 315 | 3.0 | 3.0 | 0.05 | 0.19 | 0.19 | 99 | 1012.7 |
| 20260502161632 | 56 | 315 | 3.0 | 3.0 | 0.05 | 0.19 | 0.19 | 99 | 1012.7 |
| 20260502161129 | 56 | 355 | 2.0 | 2.0 | 0.05 | 0.19 | 0.19 | 99 | 1012.5 |
| 20260502160627 | 56 | 344 | 4.0 | 5.0 | 0.07 | 0.18 | 0.18 | 99 | 1012.2 |
| 20260502160126 | 56 | 344 | 4.0 | 5.0 | 0.07 | 0.18 | 0.18 | 99 | 1012.2 |
| 20260502152040 | 56 | 332 | 3.0 | 3.0 | 0.00 | 0.12 | 0.12 | 98 | 1012.4 |
| 20260502151537 | 56 | 332 | 3.0 | 3.0 | 0.00 | 0.12 | 0.12 | 98 | 1012.4 |
| 20260502151034 | 56 | 6 | 7.0 | 10.0 | 0.05 | 0.12 | 0.12 | 98 | 1012.4 |
| 20260502150531 | 56 | 307 | 2.0 | 3.0 | 0.12 | 0.11 | 0.11 | 98 | 1012.4 |
| 20260502130416 | 56 | 354 | 2.0 | 3.0 | 0.05 | 0.05 | 0.05 | 97 | 1012.0 |
| 20260502123359 | 56 | 309 | 1.0 | 1.0 | 0.00 | 0.03 | 0.03 | 98 | 1011.7 |
| 20260502122856 | 56 | 305 | 0.0 | 0.0 | 0.00 | 0.03 | 0.03 | 98 | 1011.5 |
| 20260502122352 | 56 | 304 | 0.0 | 1.0 | 0.00 | 0.03 | 0.03 | 98 | 1011.6 |
| 20260502121850 | 56 | 327 | 1.0 | 1.0 | 0.00 | 0.03 | 0.03 | 98 | 1011.9 |
| 20260502121347 | 56 | 338 | 1.0 | 1.0 | 0.00 | 0.03 | 0.03 | 98 | 1011.8 |
| 20260502120845 | 56 | 11 | 2.0 | 2.0 | 0.00 | 0.03 | 0.03 | 98 | 1011.6 |
| 20260502120340 | 55 | 340 | 2.0 | 2.0 | 0.00 | 0.03 | 0.03 | 98 | 1011.6 |
| 20260502115838 | 55 | 322 | 1.0 | 1.0 | 0.00 | 0.03 | 0.03 | 98 | 1011.7 |
| 20260502115335 | 55 | 309 | 1.0 | 1.0 | 0.00 | 0.03 | 0.03 | 98 | 1011.8 |
| 20260502114832 | 55 | 318 | 1.0 | 1.0 | 0.00 | 0.03 | 0.03 | 98 | 1011.9 |
| 20260502114329 | 55 | 333 | 2.0 | 2.0 | 0.00 | 0.03 | 0.03 | 98 | 1011.9 |
| 20260502113825 | 55 | 297 | 0.0 | 0.0 | 0.00 | 0.03 | 0.03 | 98 | 1011.8 |
| 20260502113323 | 55 | 300 | 0.0 | 1.0 | 0.00 | 0.03 | 0.03 | 98 | 1011.8 |
| 20260502112821 | 55 | 303 | 1.0 | 1.0 | 0.00 | 0.03 | 0.03 | 98 | 1011.5 |
| 20260502112318 | 55 | 324 | 2.0 | 2.0 | 0.00 | 0.03 | 0.03 | 98 | 1011.6 |
| 20260502111816 | 55 | 307 | 3.0 | 3.0 | 0.00 | 0.03 | 0.03 | 97 | 1011.4 |
| 20260502111313 | 55 | 304 | 3.0 | 3.0 | 0.00 | 0.03 | 0.03 | 97 | 1011.6 |
| 20260502110810 | 55 | 310 | 2.0 | 2.0 | 0.12 | 0.03 | 0.03 | 97 | 1011.6 |
| 20260502110309 | 55 | 304 | 3.0 | 3.0 | 0.07 | 0.02 | 0.02 | 96 | 1011.5 |
| 20260502105806 | 55 | 293 | 5.0 | 6.0 | 0.07 | 0.02 | 0.02 | 96 | 1011.6 |
| 20260502105305 | 55 | 309 | 5.0 | 6.0 | 0.00 | 0.01 | 0.01 | 96 | 1011.5 |
| 20260502104800 | 55 | 308 | 4.0 | 5.0 | 0.00 | 0.01 | 0.01 | 96 | 1011.7 |
| 20260502104257 | 55 | 304 | 4.0 | 6.0 | 0.00 | 0.01 | 0.01 | 96 | 1011.6 |
| 20260502103754 | 55 | 307 | 1.0 | 2.0 | 0.00 | 0.01 | 0.01 | 96 | 1011.5 |
| 20260502103252 | 55 | 298 | 1.0 | 1.0 | 0.00 | 0.01 | 0.01 | 96 | 1011.1 |
| 20260502102749 | 55 | 320 | 1.0 | 2.0 | 0.00 | 0.01 | 0.01 | 96 | 1011.1 |
| 20260502102245 | 55 | 309 | 1.0 | 2.0 | 0.00 | 0.01 | 0.01 | 96 | 1011.1 |
| 20260502101743 | 55 | 332 | 1.0 | 2.0 | 0.00 | 0.01 | 0.01 | 96 | 1011.0 |
| 20260502101241 | 55 | 323 | 2.0 | 2.0 | 0.00 | 0.01 | 0.01 | 96 | 1011.0 |
| 20260502100739 | 55 | 323 | 1.0 | 2.0 | 0.00 | 0.01 | 0.01 | 96 | 1010.9 |
| 20260502100238 | 55 | 321 | 1.0 | 2.0 | 0.00 | 0.01 | 0.01 | 96 | 1011.1 |
| 20260502091212 | 55 | 311 | 0.0 | 0.0 | 0.00 | 0.00 | 0.00 | 93 | 1011.4 |
| 20260502090709 | 55 | 311 | 0.0 | 0.0 | 0.00 | 0.00 | 0.00 | 93 | 1011.3 |
| 20260502090206 | 55 | 313 | 1.0 | 1.0 | 0.00 | 0.00 | 0.00 | 93 | 1011.3 |
| 20260502071101 | 56 | 327 | 1.0 | 1.0 | 0.00 | 0.00 | 0.00 | 90 | 1010.7 |
| 20260502070559 | 56 | 333 | 1.0 | 2.0 | 0.00 | 0.00 | 0.00 | 90 | 1010.9 |
| 20260502070057 | 56 | 307 | 0.0 | 0.0 | 0.00 | 0.00 | 0.00 | 90 | 1010.9 |
| 20260502065555 | 56 | 306 | 0.0 | 1.0 | 0.00 | 0.00 | 0.00 | 90 | 1011.0 |
| 20260502065052 | 56 | 315 | 0.0 | 1.0 | 0.00 | 0.00 | 0.00 | 90 | 1011.1 |
| 20260502064551 | 56 | 319 | 1.0 | 1.0 | 0.00 | 0.00 | 0.00 | 90 | 1011.1 |
| 20260502064048 | 56 | 309 | 1.0 | 1.0 | 0.00 | 0.00 | 0.00 | 90 | 1011.2 |
| 20260502063545 | 56 | 307 | 0.0 | 0.0 | 0.00 | 0.00 | 0.00 | 90 | 1011.3 |